Weather History for Hebron, NE

Change the Weather History Date:

Tuesday, February 11, 2014

  Actual Average Record
Temperature  
Mean Temperature 17 °F -  
Max Temperature 22 °F 38 °F 72 °F (1951)
Min Temperature 12 °F 15 °F -16 °F (1981)
Degree Days  
Heating Degree Days 48    
Moisture  
Dew Point 7 °F    
Average Humidity 69    
Maximum Humidity 73    
Minimum Humidity 63    
Precipitation  
Precipitation 0.00 in - - ()
Sea Level Pressure  
Sea Level Pressure 30.26 in    
Wind  
Wind Speed 8 mph (South)    
Max Wind Speed 23 mph    
Max Gust Speed 28 mph    
Visibility 10 miles    
Events      
Averages and records for this station are not official NWS values.
T = Trace of Precipitation, MM = Missing Value Source: NWS Daily Summary

Daily Weather History Graph

Daily Weather History Graph

Search for Another Location

Airport:

Trip Planner

Search our weather history database for the weather conditions in past years. The results will help you decide how hot, cold, wet, or windy it might be!

Date:

Astronomy

Feb. 11, 2014 Rise Set
Actual Time 7:28 AM CST 6:01 PM CST
Civil Twilight 7:00 AM CST 6:29 PM CST
Nautical Twilight 6:28 AM CST 7:01 PM CST
Astronomical Twilight 5:56 AM CST 7:32 PM CST
Moon 3:22 PM CST (2/11) 5:06 AM CST (2/11)
Length of Visible Light 11h 29m
Length of Day
10h 33m
Waxing Gibbous, 91% of the Moon is Illuminated
Feb 11
Waxing Gibbous
Feb 14
Full
Feb 22
Last Quarter
Mar 1
New
Mar 8
First Quarter

Hourly Weather History & Observations

Time (CST) Temp. Windchill Dew Point Humidity Pressure Visibility Wind Dir Wind Speed Gust Speed Precip Events Conditions
12:15 AM 12.2 °F 2.9 °F 4.5 °F 71% 30.39 in 10.0 mi SE 5.8 mph - N/A   Overcast
12:35 AM 12.2 °F 4.3 °F 4.3 °F 71% 30.39 in 10.0 mi SSE 4.6 mph - N/A   Overcast
12:55 AM 12.2 °F - 4.3 °F 71% 30.40 in 10.0 mi Calm Calm - N/A   Overcast
1:15 AM 12.2 °F - 4.3 °F 71% 30.40 in 10.0 mi Calm Calm - N/A   Overcast
1:35 AM 12.2 °F - 4.6 °F 72% 30.41 in 10.0 mi Calm Calm - N/A   Overcast
1:55 AM 12.2 °F 6.1 °F 5.0 °F 73% 30.41 in 10.0 mi SSE 3.5 mph - N/A   Overcast
2:15 AM 12.4 °F 4.6 °F 5.0 °F 72% 30.42 in 10.0 mi South 4.6 mph - N/A   Overcast
2:35 AM 12.6 °F 4.8 °F 5.0 °F 72% 30.42 in 10.0 mi South 4.6 mph - N/A   Overcast
2:55 AM 12.6 °F 4.8 °F 5.2 °F 72% 30.41 in 10.0 mi South 4.6 mph - N/A   Overcast
3:15 AM 12.6 °F 3.4 °F 5.0 °F 72% 30.40 in 10.0 mi South 5.8 mph - N/A   Overcast
3:35 AM 12.6 °F 1.1 °F 4.8 °F 71% 30.39 in 10.0 mi South 8.1 mph - N/A   Overcast
3:55 AM 12.6 °F 1.1 °F 5.0 °F 72% 30.39 in 10.0 mi South 8.1 mph - N/A   Overcast
4:15 AM 12.6 °F 3.4 °F 5.2 °F 72% 30.38 in 10.0 mi South 5.8 mph - N/A   Overcast
4:35 AM 12.6 °F 2.2 °F 5.0 °F 72% 30.38 in 10.0 mi South 6.9 mph - N/A   Overcast
4:55 AM 12.2 °F 1.7 °F 5.0 °F 73% 30.38 in 10.0 mi South 6.9 mph - N/A   Overcast
5:15 AM 12.2 °F 2.9 °F 4.8 °F 72% 30.38 in 10.0 mi South 5.8 mph - N/A   Overcast
5:35 AM 12.2 °F 2.9 °F 4.8 °F 72% 30.38 in 10.0 mi South 5.8 mph - N/A   Overcast
5:55 AM 12.2 °F 1.7 °F 4.8 °F 72% 30.37 in 10.0 mi South 6.9 mph - N/A   Overcast
6:15 AM 12.4 °F 2.0 °F 5.0 °F 72% 30.37 in 10.0 mi South 6.9 mph - N/A   Overcast
6:35 AM 12.2 °F 1.7 °F 5.0 °F 73% 30.36 in 10.0 mi South 6.9 mph - N/A   Overcast
6:55 AM 12.2 °F 0.7 °F 4.6 °F 72% 30.36 in 10.0 mi South 8.1 mph - N/A   Overcast
7:15 AM 12.2 °F 2.9 °F 4.8 °F 72% 30.36 in 10.0 mi SSE 5.8 mph - N/A   Overcast
7:35 AM 12.0 °F -0.4 °F 4.6 °F 72% 30.36 in 10.0 mi SSE 9.2 mph - N/A   Overcast
7:55 AM 12.2 °F 0.7 °F 4.8 °F 72% 30.36 in 10.0 mi SSE 8.1 mph - N/A   Overcast
8:15 AM 12.0 °F 0.5 °F 4.1 °F 71% 30.36 in 10.0 mi South 8.1 mph - N/A   Overcast
8:35 AM 12.2 °F -0.2 °F 4.5 °F 71% 30.36 in 10.0 mi South 9.2 mph - N/A   Overcast
8:55 AM 12.2 °F 0.7 °F 4.3 °F 71% 30.35 in 10.0 mi South 8.1 mph - N/A   Overcast
9:15 AM 13.1 °F 0.9 °F 4.3 °F 68% 30.35 in 10.0 mi SSE 9.2 mph - N/A   Overcast
9:35 AM 13.1 °F 1.8 °F 4.3 °F 68% 30.35 in 10.0 mi South 8.1 mph - N/A   Scattered Clouds
9:55 AM 13.6 °F 1.6 °F 4.6 °F 67% 30.34 in 10.0 mi South 9.2 mph - N/A   Scattered Clouds
10:15 AM 14.4 °F 0.9 °F 4.8 °F 66% 30.33 in 10.0 mi South 11.5 mph - N/A   Overcast
10:35 AM 14.5 °F 0.5 °F 4.8 °F 65% 30.34 in 10.0 mi South 12.7 mph - N/A   Overcast
10:55 AM 14.9 °F 1.6 °F 5.7 °F 67% 30.34 in 10.0 mi South 11.5 mph - N/A   Overcast
11:15 AM 15.3 °F 1.4 °F 5.4 °F 65% 30.34 in 10.0 mi South 12.7 mph - N/A   Overcast
11:35 AM 15.6 °F 1.8 °F 5.9 °F 66% 30.33 in 10.0 mi South 12.7 mph 17.3 mph N/A   Overcast
11:55 AM 16.2 °F 3.2 °F 6.4 °F 66% 30.31 in 10.0 mi South 11.5 mph 17.3 mph N/A   Overcast
12:15 PM 16.5 °F 3.0 °F 5.9 °F 63% 30.31 in 10.0 mi SSW 12.7 mph - N/A   Overcast
12:35 PM 16.7 °F 1.5 °F 6.8 °F 65% 30.29 in 10.0 mi South 16.1 mph - N/A   Overcast
12:55 PM 17.4 °F 2.9 °F 7.5 °F 65% 30.27 in 10.0 mi South 15.0 mph 19.6 mph N/A   Overcast
1:15 PM 17.6 °F 3.2 °F 7.3 °F 64% 30.26 in 10.0 mi South 15.0 mph - N/A   Overcast
1:35 PM 18.1 °F 4.4 °F 7.7 °F 64% 30.24 in 10.0 mi South 13.8 mph - N/A   Overcast
1:55 PM 18.5 °F 4.3 °F 8.2 °F 64% 30.22 in 10.0 mi South 15.0 mph - N/A   Overcast
2:15 PM 19.4 °F 6.6 °F 9.0 °F 64% 30.21 in 10.0 mi South 12.7 mph - N/A   Overcast
2:35 PM 19.9 °F 6.7 °F 9.9 °F 65% 30.20 in 10.0 mi South 13.8 mph - N/A   Overcast
2:55 PM 20.8 °F 9.0 °F 10.8 °F 65% 30.19 in 10.0 mi South 11.5 mph - N/A   Overcast
3:15 PM 22.3 °F 9.2 °F 11.8 °F 64% 30.18 in 10.0 mi South 15.0 mph 18.4 mph N/A   Overcast
3:35 PM 22.5 °F 8.9 °F 11.5 °F 63% 30.17 in 10.0 mi South 16.1 mph - N/A   Scattered Clouds
3:55 PM 22.3 °F 8.7 °F 12.0 °F 65% 30.15 in 10.0 mi South 16.1 mph 21.9 mph N/A   Scattered Clouds
4:15 PM 22.3 °F 10.2 °F 12.2 °F 65% 30.15 in 10.0 mi South 12.7 mph 17.3 mph N/A   Clear
4:35 PM 22.5 °F 11.7 °F 12.4 °F 65% 30.14 in 10.0 mi South 10.4 mph 19.6 mph N/A   Clear
4:55 PM 22.1 °F 10.6 °F 12.0 °F 65% 30.13 in 10.0 mi South 11.5 mph - N/A   Clear
5:15 PM 21.6 °F 9.9 °F 11.8 °F 66% 30.12 in 10.0 mi South 11.5 mph - N/A   Clear
5:35 PM 20.8 °F 8.4 °F 11.3 °F 67% 30.12 in 10.0 mi South 12.7 mph 17.3 mph N/A   Clear
5:55 PM 19.4 °F 7.9 °F 10.9 °F 70% 30.12 in 10.0 mi South 10.4 mph - N/A   Clear
6:15 PM 18.9 °F 9.8 °F 10.4 °F 70% 30.12 in 10.0 mi South 6.9 mph - N/A   Clear
6:35 PM 18.3 °F 6.6 °F 10.0 °F 70% 30.12 in 10.0 mi South 10.4 mph - N/A   Clear
6:55 PM 17.6 °F 7.3 °F 9.5 °F 71% 30.12 in 10.0 mi South 8.1 mph - N/A   Clear
7:15 PM 17.4 °F 7.1 °F 9.5 °F 71% 30.12 in 10.0 mi South 8.1 mph - N/A   Clear
7:35 PM 16.9 °F 6.4 °F 9.1 °F 72% 30.11 in 10.0 mi South 8.1 mph - N/A   Clear
7:55 PM 16.9 °F 6.4 °F 8.6 °F 70% 30.11 in 10.0 mi South 8.1 mph - N/A   Clear
8:15 PM 16.7 °F 4.5 °F 8.4 °F 70% 30.11 in 10.0 mi South 10.4 mph - N/A   Clear
8:35 PM 16.5 °F 3.6 °F 8.2 °F 70% 30.11 in 10.0 mi South 11.5 mph - N/A   Clear
8:55 PM 16.7 °F 3.2 °F 8.2 °F 69% 30.11 in 10.0 mi South 12.7 mph 16.1 mph N/A   Clear
9:15 PM 16.7 °F 4.5 °F 8.2 °F 69% 30.12 in 10.0 mi South 10.4 mph - N/A   Clear
9:35 PM 17.1 °F 5.0 °F 8.4 °F 69% 30.12 in 10.0 mi SSW 10.4 mph - N/A   Clear
9:55 PM 17.4 °F 4.7 °F 8.6 °F 68% 30.12 in 10.0 mi SSW 11.5 mph - N/A   Clear
10:15 PM 18.0 °F 4.2 °F 9.3 °F 69% 30.12 in 10.0 mi South 13.8 mph - N/A   Clear
10:35 PM 18.3 °F 4.6 °F 9.9 °F 70% 30.11 in 10.0 mi SSW 13.8 mph 21.9 mph N/A   Scattered Clouds
10:55 PM 18.3 °F 5.2 °F 10.4 °F 71% 30.10 in 10.0 mi SSW 12.7 mph 19.6 mph N/A   Mostly Cloudy
11:15 PM 18.9 °F 4.3 °F 11.1 °F 72% 30.10 in 10.0 mi SSW 16.1 mph 21.9 mph N/A   Overcast
11:35 PM 18.9 °F 3.3 °F 11.3 °F 72% 30.07 in 10.0 mi SSW 18.4 mph 23.0 mph N/A   Overcast
11:55 PM 19.2 °F 2.2 °F 11.7 °F 72% 30.06 in 10.0 mi SSW 23.0 mph 27.6 mph N/A   Mostly Cloudy